Regional Weather Roundup
Issued by NWS

Home | Current Version | Previous Version | Graphics & Text | Print | Product List | Glossary On
Versions: 1 2 3 4 5 6 7 8 9 10 11 12 13 14 15 16 17 18 19 20 21 22 23 24 25 26 27 28 29 30 31 32 33 34 35 36 37 38 39 40 41 42 43 44 45 46 47 48 49 50
000
ASUS43 KLOT 062100
RWRIL

ILLINOIS REGIONAL WEATHER ROUNDUP
NATIONAL WEATHER SERVICE CHICAGO/ROMEOVILLE IL
400 PM CDT MON JUL 06 2015

NOTE: "FAIR" INDICATES FEW OR NO CLOUDS BELOW 12,000 FEET WITH NO
SIGNIFICANT WEATHER AND/OR OBSTRUCTIONS TO VISIBILITY.

* THESE STATIONS ARE NOT UNDER NWS QUALITY CONTROL. THEY ALSO MAY NOT
  REPORT WEATHER SUCH AS PRECIPITATION OR FOG.

ILZ001-002-007-009-015-016-024-062200-
NORTHWEST ILLINOIS

CITY           SKY/WX    TMP DP  RH WIND       PRES   REMARKS
MOLINE         CLOUDY    82  73  74 S7        29.83F HX  87
STERLING*      CLOUDY    81  75  83 CALM      29.86F HX  86
$$

ILZ003-004-008-010-011-017-018-062200-
NORTH CENTRAL ILLINOIS

CITY           SKY/WX    TMP DP  RH WIND       PRES   REMARKS
ROCKFORD       LGT RAIN  77  72  84 SW6       29.89F
$$

ILZ005-006-012>014-019>023-062200-
NORTHEAST ILLINOIS

CITY           SKY/WX    TMP DP  RH WIND       PRES   REMARKS
CHICAGO-OHARE  CLOUDY    76  70  82 S8        29.90F
CHICAGO-MIDWAY CLOUDY    79  70  74 S12       29.91F HX  82
AURORA         CLOUDY    81  70  69 S13G21    29.89F HX  84
WAUKEGAN       CLOUDY    73  70  90 SE10      29.86F
DUPAGE AIRPORT CLOUDY    77  71  82 S7        29.89F
WHEELING       CLOUDY    75  70  84 S9        29.91F
NORTHERLY ISL    N/A     76  67  73 S7          N/A
$$

LMZ740>746-062200-
SOUTHERN LAKE MICHIGAN

STATION/POSITION SKY/WX   TEMP    WIND        PRES    VSBY  WAVE
                          AIR SEA DIR/SP/G                  HT/PER
                          (F)     (DEG/KT/KT) (MB)    (MI)  (FT/S)
HARRISON CRIB              74     300/ 23/ 26   N/A
BURNHAM HARBOR             80     290/ 13/ 18   N/A
CALUMET HARBOR             85     180/  8/ 16   N/A
BURNS HARBOR               84     180/ 12/ 21 1013.9S
MICHIGAN CITY              82     180/ 14/ 19   N/A
MICHIGAN CITY 6N           76 67  200/  8/ 14   N/A           1/ 3
ST. JOSEPH                 74 66  230/  8/  8   N/A           1/ 2
$$

ILZ025>027-034>036-040-047-049-050-058-095>099-062200-
WEST-CENTRAL ILLINOIS

CITY           SKY/WX    TMP DP  RH WIND       PRES   REMARKS
QUINCY         PTSUNNY   88  75  65 S16       29.88F HX  97
$$

ILZ028>032-037-038-041>044-048-051>054-059>061-062200-
CENTRAL ILLINOIS

CITY           SKY/WX    TMP DP  RH WIND       PRES   REMARKS
DECATUR        CLOUDY    84  74  71 S15       29.95S HX  91
PEORIA         CLOUDY    89  75  63 S14       29.88F HX  99
SPRINGFIELD    CLOUDY    87  75  67 SW8       29.92S HX  96
TAYLORVILLE    NOT AVBL
$$

ILZ033-039-045-046-055>057-062-063-062200-
EAST-CENTRAL ILLINOIS

CITY           SKY/WX    TMP DP  RH WIND       PRES   REMARKS
CHAMPAIGN      PTSUNNY   86  73  65 S12G20    29.96S HX  93
MATTOON        PTSUNNY   84  73  69 S10G20    29.97S HX  90
$$

ILZ079-100>102-062200-
SOUTHWEST ILLINOIS

CITY           SKY/WX    TMP DP  RH WIND       PRES   REMARKS
CAHOKIA*       CLOUDY    85  77  77 SE7       29.94F HX  95
$$

ILZ064>066-069>071-074>076-080>082-084>086-088>090-092>094-062200-
SOUTH-CENTRAL ILLINOIS

CITY           SKY/WX    TMP DP  RH WIND       PRES   REMARKS
CARBONDALE     PTSUNNY   85  74  69 S16       29.99F HX  92
MARION         PTSUNNY   86  75  70 SW12      30.00F HX  95
MT. VERNON     PTSUNNY   88  73  62 S10       29.99F HX  96
$$

ILZ067-068-072-073-078-083-087-091-062200-
SOUTHEAST ILLINOIS

CITY           SKY/WX    TMP DP  RH WIND       PRES   REMARKS
LAWRENCEVILLE  MOSUNNY   85  74  69 S15       29.99F HX  92
$$

ABBREVIATIONS USED IN REMARKS
   TC - TEMPERATURE IN CELSIUS
  WCI - WIND CHILL INDEX
   HX - HEAT INDEX
  VSB - VISIBILITY
$$




USA.gov is the U.S. government's official web portal to all federal, state and local government web resources and services.